| time (UTC) | temp C | wind direction | speed KPH | gust KPH | rain 1hr cm | rain 24hr cm | rain mn cm | humidity % | barometer mb |
| 20260504045950 | 17 | 177 | 4.8 | 9.7 | 0.00 | 0.00 | 0.00 | 67 | 1015.5 |
| 20260504044939 | 17 | 183 | 6.4 | 9.7 | 0.00 | 0.00 | 0.00 | 67 | 1015.6 |
| 20260504043947 | 17 | 178 | 4.8 | 9.7 | 0.00 | 0.00 | 0.00 | 66 | 1015.6 |
| 20260504042929 | 17 | 181 | 4.8 | 11.3 | 0.00 | 0.00 | 0.00 | 65 | 1015.6 |
| 20260504041927 | 17 | 184 | 4.8 | 11.3 | 0.00 | 0.00 | 0.00 | 64 | 1015.6 |
| 20260504035834 | 17 | 180 | 4.8 | 11.3 | 0.00 | 0.00 | 0.00 | 63 | 1015.6 |
| 20260504034843 | 17 | 180 | 4.8 | 11.3 | 0.00 | 0.00 | 0.00 | 62 | 1015.7 |
| 20260504033845 | 17 | 186 | 4.8 | 11.3 | 0.00 | 0.00 | 0.00 | 62 | 1015.7 |
| 20260504032905 | 18 | 180 | 3.2 | 8.0 | 0.00 | 0.00 | 0.00 | 60 | 1015.6 |
| 20260504031918 | 18 | 175 | 4.8 | 9.7 | 0.00 | 0.00 | 0.00 | 59 | 1015.4 |
| 20260504030925 | 18 | 180 | 4.8 | 9.7 | 0.00 | 0.00 | 0.00 | 58 | 1015.5 |
| 20260504024751 | 19 | 173 | 4.8 | 9.7 | 0.00 | 0.00 | 0.00 | 56 | 1015.4 |
| 20260504023734 | 20 | 175 | 6.4 | 16.1 | 0.00 | 0.00 | 0.00 | 54 | 1015.5 |
| 20260504022732 | 20 | 184 | 8.0 | 16.1 | 0.00 | 0.00 | 0.00 | 54 | 1015.4 |
| 20260504021749 | 20 | 164 | 6.4 | 14.5 | 0.00 | 0.00 | 0.00 | 53 | 1015.3 |
| 20260504020810 | 20 | 180 | 6.4 | 11.3 | 0.00 | 0.00 | 0.00 | 52 | 1015.3 |
| 20260504015818 | 20 | 161 | 6.4 | 12.9 | 0.00 | 0.00 | 0.00 | 51 | 1015.3 |
| 20260504014759 | 21 | 178 | 6.4 | 17.7 | 0.00 | 0.00 | 0.00 | 50 | 1015.2 |
| 20260504013802 | 21 | 179 | 6.4 | 17.7 | 0.00 | 0.00 | 0.00 | 49 | 1015.2 |
| 20260504012750 | 21 | 178 | 6.4 | 12.9 | 0.00 | 0.00 | 0.00 | 49 | 1015.1 |
| 20260504011725 | 22 | 189 | 6.4 | 14.5 | 0.00 | 0.00 | 0.00 | 48 | 1015.0 |
| 20260504010727 | 22 | 157 | 8.0 | 16.1 | 0.00 | 0.00 | 0.00 | 47 | 1015.0 |
| 20260504005703 | 23 | 190 | 9.7 | 16.1 | 0.00 | 0.00 | 0.00 | 46 | 1014.9 |
| 20260504004717 | 23 | 174 | 8.0 | 20.9 | 0.00 | 0.00 | 0.00 | 45 | 1014.9 |
| 20260504003732 | 24 | 173 | 11.3 | 22.5 | 0.00 | 0.00 | 0.00 | 44 | 1014.9 |
| 20260504002709 | 24 | 184 | 12.9 | 22.5 | 0.00 | 0.00 | 0.00 | 44 | 1014.9 |
| 20260504001713 | 25 | 188 | 12.9 | 20.9 | 0.00 | 0.00 | 0.00 | 42 | 1014.9 |
| 20260504000646 | 25 | 184 | 12.9 | 22.5 | 0.00 | 0.00 | 0.00 | 41 | 1015.0 |
| 20260503235625 | 25 | 180 | 12.9 | 25.7 | 0.00 | 0.00 | 0.00 | 40 | 1014.9 |
| 20260503233548 | 26 | 184 | 12.9 | 24.1 | 0.00 | 0.00 | 0.00 | 38 | 1015.2 |
| 20260503232528 | 26 | 173 | 16.1 | 29.0 | 0.00 | 0.00 | 0.00 | 37 | 1015.2 |
| 20260503231457 | 26 | 175 | 16.1 | 30.6 | 0.00 | 0.00 | 0.00 | 37 | 1015.3 |
| 20260503230517 | 26 | 184 | 16.1 | 30.6 | 0.00 | 0.00 | 0.00 | 36 | 1015.3 |
| 20260503223159 | 27 | 161 | 12.9 | 25.7 | 0.00 | 0.00 | 0.00 | 37 | 1015.5 |
| 20260503222200 | 27 | 171 | 14.5 | 27.4 | 0.00 | 0.00 | 0.00 | 34 | 1015.7 |
| 20260503221202 | 27 | 180 | 16.1 | 27.4 | 0.00 | 0.00 | 0.00 | 35 | 1015.7 |
| 20260503213938 | 27 | 189 | 16.1 | 32.2 | 0.00 | 0.00 | 0.00 | 37 | 1015.9 |
| 20260503212920 | 28 | 188 | 11.3 | 22.5 | 0.00 | 0.00 | 0.00 | 37 | 1016.1 |
| 20260503211918 | 28 | 207 | 11.3 | 22.5 | 0.00 | 0.00 | 0.00 | 34 | 1016.3 |
| 20260503205845 | 28 | 200 | 11.3 | 24.1 | 0.00 | 0.00 | 0.00 | 34 | 1016.6 |
| 20260503204909 | 28 | 168 | 11.3 | 24.1 | 0.00 | 0.00 | 0.00 | 34 | 1016.8 |
| 20260503203920 | 28 | 183 | 11.3 | 20.9 | 0.00 | 0.00 | 0.00 | 36 | 1016.9 |
| 20260503201815 | 27 | 178 | 14.5 | 27.4 | 0.00 | 0.00 | 0.00 | 34 | 1017.3 |
| 20260503200746 | 27 | 223 | 6.4 | 22.5 | 0.00 | 0.00 | 0.00 | 36 | 1017.6 |
| 20260503195730 | 27 | 238 | 9.7 | 22.5 | 0.00 | 0.00 | 0.00 | 36 | 1017.7 |
| 20260503194713 | 27 | 170 | 9.7 | 17.7 | 0.00 | 0.00 | 0.00 | 37 | 1017.9 |
| 20260503193640 | 28 | 238 | 8.0 | 20.9 | 0.00 | 0.00 | 0.00 | 38 | 1018.0 |
| 20260503192705 | 27 | 200 | 12.9 | 22.5 | 0.00 | 0.00 | 0.00 | 36 | 1018.1 |
| 20260503191713 | 27 | 203 | 9.7 | 27.4 | 0.00 | 0.00 | 0.00 | 38 | 1018.1 |
| 20260503190703 | 27 | 250 | 11.3 | 33.8 | 0.00 | 0.00 | 0.00 | 38 | 1018.3 |
| 20260503185644 | 27 | 213 | 12.9 | 33.8 | 0.00 | 0.00 | 0.00 | 37 | 1018.4 |
| 20260503184649 | 27 | 263 | 12.9 | 22.5 | 0.00 | 0.00 | 0.00 | 40 | 1018.6 |
| 20260503183633 | 27 | 213 | 8.0 | 22.5 | 0.00 | 0.00 | 0.00 | 39 | 1018.7 |
| 20260503182607 | 26 | 238 | 11.3 | 22.5 | 0.00 | 0.00 | 0.00 | 40 | 1018.9 |
| 20260503181558 | 26 | 252 | 8.0 | 20.9 | 0.00 | 0.00 | 0.00 | 42 | 1019.2 |
| 20260503180529 | 26 | 265 | 11.3 | 22.5 | 0.00 | 0.00 | 0.00 | 42 | 1019.4 |
| 20260503174406 | 26 | 238 | 11.3 | 27.4 | 0.00 | 0.00 | 0.00 | 44 | 1019.9 |
| 20260503173345 | 26 | 200 | 12.9 | 25.7 | 0.00 | 0.00 | 0.00 | 43 | 1019.9 |
| 20260503172408 | 26 | 236 | 11.3 | 27.4 | 0.00 | 0.00 | 0.00 | 44 | 1020.1 |
| 20260503171420 | 25 | 209 | 11.3 | 27.4 | 0.00 | 0.00 | 0.00 | 44 | 1020.2 |
| 20260503170443 | 25 | 218 | 9.7 | 22.5 | 0.00 | 0.00 | 0.00 | 45 | 1020.3 |
| 20260503150831 | 21 | 205 | 6.4 | 14.5 | 0.00 | 0.00 | 0.00 | 60 | 1020.8 |
| 20260503130536 | 12 | 180 | 1.6 | 9.7 | 0.00 | 0.00 | 0.00 | 92 | 1020.8 |
| 20260503081455 | 10 | 138 | 0.0 | 0.0 | 0.00 | 0.00 | 0.00 | 88 | 1019.9 |
| 20260503080512 | 10 | 138 | 0.0 | 0.0 | 0.00 | 0.00 | 0.00 | 88 | 1019.9 |
| 20260503072323 | 11 | 138 | 0.0 | 0.0 | 0.00 | 0.00 | 0.00 | 87 | 1020.0 |
| 20260503071326 | 11 | 138 | 0.0 | 0.0 | 0.00 | 0.00 | 0.00 | 87 | 1020.0 |
| 20260503070327 | 11 | 138 | 0.0 | 0.0 | 0.00 | 0.00 | 0.00 | 86 | 1020.1 |
| 20260503053857 | 12 | 138 | 0.0 | 0.0 | 0.00 | 0.00 | 0.00 | 81 | 1020.0 |
| 20260503052912 | 12 | 138 | 0.0 | 0.0 | 0.00 | 0.00 | 0.00 | 80 | 1019.9 |